EUTELSAT QUANTUM

Last updated on Thu Jul 03 2025 00:02:48 GMT+0000 (Coordinated Universal Time)

1 49056U 21069B 25183.56086475 .00000133 00000+0 00000+0 0 9997 2 49056 0.0108 21.1480 0001621 88.8245 60.4506 1.00272200 14422
UTC large
Height (km)
Speed (km/s)
/
Latitude / Longitude
Inclination (degrees)
Orbital Period (minutes)
Azimuth
Elevation
Range (km)
Doppler Factor

Next 0 passes for location: London (51.5072 / 0.1276)

Sorry there are no passes over London.